Location: Overspoor
(51.4747°N, 5.6641°E)
Time: 15:22:07
(UTC+02:00)

RS-15 - Pass Details

Date: 05 July 2022
Orbit: 1881 x 2163 km, 64.8° (Epoch: 13 August)

Event Time Altitude Azimuth Distance (km) Brightness Sun altitude
Rises 22:41:01 0° 310° (NW) 5,686 12.8 -5.9°
Reaches altitude 10° 22:44:34 10° 313° (NW) 4,690 11.8 -6.2°
Maximum altitude 22:56:57 65° 36° (NE) 2,317 8.5 -7.4°
Drops below altitude 10° 23:08:59 10° 118° (ESE) 4,585 9.4 -8.6°
Enters shadow 23:10:44 - 120° (ESE) 5,075 9.6 -8.7°
